SCP
0 0 0 0 0 0 0 0 0 0 0 0 0 0 0 0 0 0 0 0 0 0 0 0 0 0 0 0 0 0 0 0 0 0 0 0 0 0 0 0 0 0 0 0 0
0 0 0 0 0 0 0 0 0 0 0 0 0 0 0 0 0 0 0 0 0 0 0 0 0 0 0 0 0 0 0 -0 0 0 0 0 0 0 0 0 0 0 -0 0 0
0 0 0 0 0 0 0 0 0 0 0 0 0 0 0 0 0 0 0 0 0 0 0 0 0 0 0 0 0 0 0 0 0 0 0 0 0 0 0 0 -0 -0 0 0 0
0 0 0 0 0 0 0 0 0 0 0 0 0 0 0 0 0 0 0 0 0 0 0 0 0 0 0 0 0 0 0 0 -0 0 0 0 0 0 -0 -0 0 0 0 0 0
0 0 0 0 0 0 0 0 0 0 0 0 0 0 0 0 0 0 0 0 0 0 0 0 0 0 0 0 0 0 -0 0 0 0 0 0 0 -0 -0 -0 0 0 0 0 0
0 0 0 0 0 0 0 0 0 0 0 0 0 0 0 0 0 0 0 0 0 0 0 0 0 0 0 0 0 0 0 -0 0 0 0 0 -0 0 0 0 0 0 0 0 0
0 0 0 0 0 0 0 0 0 0 0 0 0 0 0 0 0 0 0 0 0 0 0 0 0 0 0 0 0 0 -0 -0 0 0 -0 0 -0 -0 0 0 0 0 0 0 0
0 0 0 0 0 0 0 0 0 0 0 0 0 0 0 0 0 0 0 0 0 0 0 0 0 0 0 0 0 -0 -0 -0 -0 -0 0 -0 -0 -0 0 0 0 -0 0 0 0
0 0 0 0 0 0 0 0 0 0 0 0 0 0 0 0 0 0 0 0 0 0 0 0 0 0 0 0 -0 -0 0 0 -0 -0 -0 -0 -0 0 0 -0 -0 0 0 0 0
0 0 0 0 0 0 0 0 0 0 0 0 0 0 0 0 0 0 0 0 0 0 0 0 0 0 -0 -0 0 0 -0 -0 -0 -0 -0 0 -0 0 0 0 0 0 0 -0 0
0 0 0 0 0 0 0 0 0 0 0 0 0 0 0 0 0 0 0 0 0 0 0 0 -0 0 0 0 0 0 0 -0 0 -0 -0 -0 0 0 0 0 0 0 0 0 0
0 0 0 0 0 0 0 0 0 0 0 0 0 0 0 0 0 0 0 0 0 0 0 0 0 0 0 0 0 -0 -0 -0 0 -0 -0 -0 -0 0 0 0 0 0 0 0 0
0 0 0 0 0 0 0 0 0 0 0 0 0 0 0 0 0 0 0 0 0 0 0 0 0 0 0 -0 0 -0 -0 -0 0 0 0 -0 0 0 0 0 0 0 0 0 0
0 0 0 0 0 0 0 0 0 0 0 0 0 0 0 0 0 0 0 0 0 0 0 0 0 0 0 0 -0 -0 -0 -0 -0 -0 0 0 0 0 -0 0 0 0 0 0 0
0 0 0 -0 0 0 0 0 0 0 0 0 0 0 0 0 0 0 0 0 0 0 0 0 -0 -0 -0 -0 -0 -0 0 0 0 0 0 0 0 0 0 0 0 0 0 0 0
0 0 -0 0 -0 0 0 0 0 0 0 0 0 0 0 0 0 0 0 0 -0 -0 -0 0 -0 -0 -0 -0 0 0 0 0 0 0 0 0 0 0 0 0 0 0 0 0 0
0 0 -0 0 0 0 0 0 0 0 0 0 0 0 0 0 0 0 0 -0 -0 -0 -0 -0 -0 0 0 0 0 0 0 -0 0 0 0 0 0 0 0 0 0 0 0 0 0
0 -0 0 0 0 0 0 -0 0 0 0 0 0 0 0 0 0 -0 0 0 0 0 -0 -0 -0 0 0 0 0 0 0 0 0 0 0 0 0 0 0 0 0 0 0 0 0
0 0 0 0 0 0 -0 0 0 0 0 0 0 0 0 0 0 0 0 -0 -0 -0 -0 -0 -0 0 0 0 0 0 0 0 0 0 0 0 0 0 0 0 0 0 0 0 0
0 0 0 0 0 -0 -0 0 0 0 0 0 0 0 0 -0 0 0 -0 0 0 0 0 0 -0 0 0 0 0 0 0 0 0 0 0 0 0 0 0 0 0 0 0 0 0
0 0 0 0 0 -0 -0 0 0 -0 0 -0 -0 -0 -0 -0 -0 -0 -0 0 0 0 0 0 0 0 0 0 0 0 0 0 0 0 0 0 0 0 0 0 0 0 0 0 0
0 0 0 0 -0 0 -0 0 0 0 0 0 0 0 0 0 0 0 0 0 0 0 0 0 0 0 0 0 0 0 0 0 0 0 0 0 0 0 0 0 0 0 0 0 0
0 -0 0 0 -0 0 0 0 0 0 0 0 0 0 0 0 0 0 0 0 0 0 0 0 0 0 0 0 0 0 0 0 0 0 0 0 0 0 0 0 0 0 0 0 0
-0 -0 -0 -0 0 -0 0 0 0 0 0 0 0 0 0 0 0 0 0 0 0 0 0 0 0 0 0 0 0 0 0 0 0 0 0 0 0 0 0 0 0 0 0 0 0
0 0 0 0 0 0 0 0 0 0 0 0 0 0 0 0 0 0 0 0 0 0 0 0 0 0 0 0 0 0 0 0 0 0 0 0 0 0 0 0 0 0 0 0 0
0 0 0 0 0 0 0 0 0 0 0 0 0 0 0 0 0 0 0 0 0 0 0 0 0 0 0 0 0 0 0 0 0 0 0 0 0 0 0 0 0 0 0 0 0
0 0 0 0 0 0 0 0 0 0 0 0 0 0 0 0 0 0 0 0 0 0 0 0 0 0 0 0 0 0 0 0 0 0 0 0 0 0 0 0 0 0 0 0 0
Wind_Speed_500mb
17 15 11 9 11 13 14 17 21 24 24 25 29 29 26 24 20 17 10 0 4 6 9 8 11 12 11 11 12 4 9 4 6 8 5 8 1 2 5 9 15 18 28 27 22
16 15 16 15 16 18 20 22 22 26 27 34 34 32 29 27 20 16 9 7 10 9 13 8 9 7 10 7 9 10 7 7 3 1 5 6 4 5 5 12 18 34 42 39 32
22 20 20 21 24 26 27 25 25 26 25 24 16 26 27 23 16 18 11 9 10 14 9 8 9 9 11 11 17 7 5 3 3 5 5 8 9 9 9 13 41 31 30 33 35
24 25 28 28 28 30 30 31 28 24 19 11 10 13 11 4 7 13 11 11 12 10 8 7 7 7 10 8 8 8 2 2 4 4 6 8 11 12 28 48 21 22 28 32 36
29 27 26 27 29 30 30 25 16 13 15 13 11 12 12 27 19 17 15 9 10 9 7 8 9 9 8 4 4 6 3 1 6 8 14 20 22 21 51 58 47 42 38 38 37
30 30 27 27 28 28 26 25 21 20 20 19 20 20 18 29 24 20 19 14 10 9 12 9 12 19 17 4 6 4 2 5 6 7 14 10 12 6 17 11 14 33 46 42 41
27 32 32 33 32 30 27 23 31 35 41 38 39 48 51 25 26 22 18 21 22 19 20 18 11 3 8 6 7 2 5 9 2 10 8 19 15 19 40 30 24 27 34 34 36
25 29 29 26 24 23 23 25 27 30 26 29 27 26 22 25 27 15 21 23 22 22 26 27 23 19 10 12 9 10 9 10 4 20 6 12 21 7 4 10 28 37 33 36 35
21 21 23 22 22 24 25 22 19 20 22 19 16 17 11 16 20 21 17 17 17 19 18 13 9 13 7 7 10 17 4 5 17 12 9 3 22 15 14 42 65 59 51 52 52
25 30 32 29 27 23 20 21 19 10 9 14 14 17 16 16 19 19 10 7 6 4 4 8 14 10 11 12 3 7 9 10 11 10 8 16 44 32 51 45 42 36 32 34 35
13 12 8 4 9 16 23 9 8 25 61 31 23 16 18 11 31 24 10 6 8 16 11 16 16 7 4 3 3 4 4 9 10 5 14 7 29 43 38 17 13 11 18 17 22
14 12 12 10 16 11 2 3 12 23 31 36 34 24 34 21 8 36 19 8 14 9 14 14 6 3 5 3 2 4 5 11 14 4 2 13 43 16 8 6 7 10 9 11 3
17 25 29 29 26 24 31 36 25 16 13 19 32 27 21 19 21 37 28 12 15 13 13 11 2 7 2 6 13 4 2 6 11 18 3 17 17 9 5 6 7 5 5 4 1
14 18 16 17 16 21 13 10 6 5 11 24 22 21 26 6 13 33 24 9 14 6 5 10 7 3 6 5 2 7 5 3 12 10 6 12 9 14 9 14 8 13 12 7 6
9 14 14 12 4 8 3 1 3 2 11 15 15 18 19 16 7 30 28 13 9 5 5 2 8 9 2 4 4 10 1 5 2 3 6 12 7 17 8 14 14 21 23 15 12
11 5 12 15 15 8 7 6 4 14 4 12 13 18 10 22 14 20 16 18 11 6 10 6 4 2 5 6 5 7 1 3 6 4 7 7 7 13 7 9 7 9 23 21 20
28 12 4 7 11 12 11 6 11 13 8 13 9 13 3 14 14 20 11 16 9 9 14 12 4 3 6 6 4 9 10 8 12 10 9 3 4 23 12 10 9 12 19 30 27
34 29 13 9 13 14 13 12 16 5 10 1 4 4 9 12 8 16 5 9 11 8 7 7 12 2 6 3 2 7 6 9 8 6 11 4 12 12 9 11 20 20 24 27 33
3 37 26 12 8 10 5 12 15 12 2 3 4 9 10 8 3 9 10 3 3 5 6 6 10 1 3 6 5 6 9 2 12 3 6 6 16 23 8 13 18 26 25 31 34
4 6 49 16 10 10 11 7 4 2 2 2 4 4 4 12 9 9 7 4 3 3 3 3 8 1 3 4 8 6 5 7 7 6 11 12 13 12 17 15 14 15 28 36 39
10 5 41 10 10 13 9 9 6 5 3 2 4 4 3 3 1 2 3 5 2 1 2 7 6 7 4 5 10 6 5 7 6 6 8 5 15 15 18 12 15 21 26 37 42
11 8 36 13 10 11 5 9 7 5 4 2 2 4 1 4 0 2 4 1 3 3 3 1 5 8 15 6 3 3 9 7 8 12 5 6 19 11 19 11 15 35 53 50 39
8 10 28 8 8 4 1 2 3 6 6 7 5 3 4 5 4 3 5 2 2 2 4 6 3 8 16 4 5 4 7 8 5 4 12 6 16 1 11 17 31 46 59 60 42
6 6 16 24 19 14 8 1 2 1 3 2 4 4 5 4 1 6 5 4 5 4 3 3 4 13 12 16 4 7 10 10 10 5 8 26 50 58 45 29 37 46 62 64 42
10 6 5 4 11 10 6 11 6 3 3 5 3 8 10 1 3 4 5 6 2 5 3 7 8 4 14 27 10 24 20 18 22 21 15 50 22 58 52 42 54 62 56 45 32
5 4 8 9 4 3 1 11 15 6 11 6 6 6 11 9 12 11 10 8 10 6 9 3 5 2 11 10 13 18 32 28 33 32 26 52 62 52 81 62 39 43 40 36 37
6 6 2 1 3 5 7 11 13 14 13 7 13 11 8 15 18 13 11 5 8 13 12 6 6 6 14 13 23 20 14 17 10 13 15 13 33 4 28 13 28 48 50 51 40
Wind_Direction_500mb
46 54 68 96 114 116 118 121 126 127 127 118 119 120 127 130 131 131 120 104 128 110 137 135 138 124 103 78 68 73 67 151 223 154 294 10 69 277 237 248 232 231 243 262 264
56 60 69 90 108 113 118 121 124 129 132 126 116 113 122 126 133 111 69 81 122 126 115 151 133 107 69 42 36 65 97 193 69 311 282 291 254 255 258 234 252 252 253 256 256
60 67 81 95 106 113 116 116 120 126 132 137 112 118 120 121 103 30 58 105 120 108 107 126 113 75 69 29 20 19 111 108 198 195 258 269 280 239 229 262 244 241 272 257 249
69 76 85 92 104 112 113 115 116 119 123 127 113 121 109 79 83 35 69 100 108 110 105 116 90 61 58 52 24 83 99 176 208 243 262 247 279 263 230 249 264 275 270 260 250
77 76 80 90 101 109 112 113 112 112 119 105 103 103 106 87 52 66 70 92 111 104 96 99 78 89 90 93 68 75 198 47 231 263 275 283 266 265 267 268 269 267 264 262 261
83 80 82 93 104 106 104 102 99 101 102 95 101 101 99 74 54 63 65 76 98 86 68 80 99 109 96 62 66 74 135 246 260 314 305 300 281 328 278 317 288 262 259 260 263
86 92 91 94 104 104 101 94 103 95 101 92 98 91 81 70 62 69 82 84 88 93 106 100 107 112 114 90 86 104 333 338 19 349 318 323 282 232 273 281 277 284 274 261 264
91 103 100 93 95 96 94 99 103 98 90 81 88 87 76 62 63 88 85 89 91 92 91 90 87 82 58 114 28 42 49 10 32 1 360 26 277 296 288 302 302 302 282 263 268
89 106 107 104 99 96 97 94 91 91 80 76 79 90 60 61 61 66 83 86 89 83 73 72 86 77 50 50 14 17 304 329 320 41 316 135 278 272 280 310 303 296 275 265 274
97 101 106 85 88 110 107 92 81 90 71 69 55 76 49 21 38 37 64 73 87 44 51 47 50 65 30 43 227 311 336 317 259 334 354 264 264 279 286 291 288 299 294 278 263
123 137 134 82 122 131 118 102 100 68 68 70 64 74 35 50 47 29 39 42 42 58 37 23 63 57 9 10 246 278 271 274 265 1 326 255 288 291 298 246 258 313 341 310 268
96 102 99 114 153 174 197 27 107 118 75 60 62 59 39 33 34 33 39 53 46 53 343 25 73 311 280 325 284 192 292 296 283 265 333 326 294 278 271 248 269 317 342 360 5
100 112 106 84 93 115 118 110 112 112 79 33 34 31 22 31 40 9 23 40 69 53 17 102 89 315 309 31 17 330 279 323 258 318 249 316 297 335 255 266 258 293 303 341 255
126 144 127 101 114 121 111 95 86 66 73 331 355 20 360 46 44 17 20 47 39 140 81 86 313 27 33 53 105 300 155 258 283 8 281 16 278 310 321 300 246 243 243 238 220
159 194 205 206 158 204 198 74 62 85 55 318 336 351 15 69 338 10 24 53 73 71 77 309 11 19 21 265 174 261 292 249 258 105 5 357 63 269 357 299 268 234 234 232 235
36 199 209 220 229 231 184 133 79 43 275 340 336 350 16 21 18 345 31 60 68 81 34 67 39 43 260 288 230 307 226 98 69 101 22 273 84 281 249 224 292 264 238 237 239
47 52 172 179 166 155 145 109 40 101 352 312 333 10 33 355 357 25 36 17 48 49 8 353 3 314 23 326 215 24 39 344 357 7 234 269 11 247 264 258 243 274 272 245 244
44 44 73 115 138 144 141 54 70 248 237 30 306 313 65 351 25 359 64 45 44 52 90 80 321 23 9 43 281 19 109 142 250 277 281 32 234 251 224 269 272 267 267 243 236
68 36 55 78 136 163 160 55 185 196 74 325 316 61 342 13 46 46 39 53 260 9 112 32 275 122 34 26 47 345 40 136 97 75 22 272 288 294 281 291 272 266 265 256 249
76 40 23 49 98 143 74 155 142 185 35 19 95 71 30 318 19 47 354 245 291 11 114 150 327 240 32 93 41 100 163 32 15 338 296 295 279 240 301 296 321 308 283 284 268
37 77 8 32 71 64 102 201 213 191 161 102 148 106 166 217 7 9 221 183 253 1 93 132 103 297 42 189 174 33 17 35 127 141 216 299 269 217 242 241 275 293 315 320 294
40 44 360 36 38 51 89 184 138 168 155 167 68 96 236 180 168 26 333 157 171 153 52 50 136 279 241 98 78 127 189 169 124 272 223 158 262 215 234 247 246 295 304 312 301
51 40 15 72 90 25 327 71 168 153 179 177 144 79 102 138 63 247 231 224 214 155 161 172 321 341 343 62 17 187 202 147 127 81 214 179 261 298 253 287 296 285 313 323 308
42 31 37 55 74 118 134 289 69 159 150 135 111 126 144 64 8 224 229 185 194 191 150 149 193 175 208 232 150 211 206 208 155 158 206 236 281 282 287 297 300 311 312 316 309
45 84 74 332 20 92 115 159 134 207 195 193 354 219 163 123 316 260 226 173 151 166 141 137 228 212 259 264 252 265 242 219 203 219 219 273 258 280 291 298 295 303 315 314 307
58 125 102 105 122 152 98 210 170 237 152 222 202 169 177 181 200 223 178 214 205 205 171 75 277 80 282 287 262 269 248 232 234 252 257 262 279 265 269 278 291 304 314 309 307
93 114 97 63 104 95 223 177 209 165 204 202 186 137 202 236 248 262 225 183 180 160 173 141 123 44 270 337 319 292 236 170 213 211 173 221 260 325 296 275 300 311 308 306 303
Wind_Speed_850mb
17 15 11 9 11 13 14 17 21 24 24 25 29 29 26 24 20 17 10 0 4 6 9 8 11 12 11 11 12 4 9 4 6 8 5 8 1 2 5 9 15 18 28 27 22
16 15 16 15 16 18 20 22 22 26 27 34 34 32 29 27 20 16 9 7 10 9 13 8 9 7 10 7 9 10 7 7 3 1 5 6 4 5 5 12 18 34 42 39 32
22 20 20 21 24 26 27 25 25 26 25 24 16 26 27 23 16 18 11 9 10 14 9 8 9 9 11 11 17 7 5 3 3 5 5 8 9 9 9 13 41 31 30 33 35
24 25 28 28 28 30 30 31 28 24 19 11 10 13 11 4 7 13 11 11 12 10 8 7 7 7 10 8 8 8 2 2 4 4 6 8 11 12 28 48 21 22 28 32 36
29 27 26 27 29 30 30 25 16 13 15 13 11 12 12 27 19 17 15 9 10 9 7 8 9 9 8 4 4 6 3 1 6 8 14 20 22 21 51 58 47 42 38 38 37
30 30 27 27 28 28 26 25 21 20 20 19 20 20 18 29 24 20 19 14 10 9 12 9 12 19 17 4 6 4 2 5 6 7 14 10 12 6 17 11 14 33 46 42 41
27 32 32 33 32 30 27 23 31 35 41 38 39 48 51 25 26 22 18 21 22 19 20 18 11 3 8 6 7 2 5 9 2 10 8 19 15 19 40 30 24 27 34 34 36
25 29 29 26 24 23 23 25 27 30 26 29 27 26 22 25 27 15 21 23 22 22 26 27 23 19 10 12 9 10 9 10 4 20 6 12 21 7 4 10 28 37 33 36 35
21 21 23 22 22 24 25 22 19 20 22 19 16 17 11 16 20 21 17 17 17 19 18 13 9 13 7 7 10 17 4 5 17 12 9 3 22 15 14 42 65 59 51 52 52
25 30 32 29 27 23 20 21 19 10 9 14 14 17 16 16 19 19 10 7 6 4 4 8 14 10 11 12 3 7 9 10 11 10 8 16 44 32 51 45 42 36 32 34 35
13 12 8 4 9 16 23 9 8 25 61 31 23 16 18 11 31 24 10 6 8 16 11 16 16 7 4 3 3 4 4 9 10 5 14 7 29 43 38 17 13 11 18 17 22
14 12 12 10 16 11 2 3 12 23 31 36 34 24 34 21 8 36 19 8 14 9 14 14 6 3 5 3 2 4 5 11 14 4 2 13 43 16 8 6 7 10 9 11 3
17 25 29 29 26 24 31 36 25 16 13 19 32 27 21 19 21 37 28 12 15 13 13 11 2 7 2 6 13 4 2 6 11 18 3 17 17 9 5 6 7 5 5 4 1
14 18 16 17 16 21 13 10 6 5 11 24 22 21 26 6 13 33 24 9 14 6 5 10 7 3 6 5 2 7 5 3 12 10 6 12 9 14 9 14 8 13 12 7 6
9 14 14 12 4 8 3 1 3 2 11 15 15 18 19 16 7 30 28 13 9 5 5 2 8 9 2 4 4 10 1 5 2 3 6 12 7 17 8 14 14 21 23 15 12
11 5 12 15 15 8 7 6 4 14 4 12 13 18 10 22 14 20 16 18 11 6 10 6 4 2 5 6 5 7 1 3 6 4 7 7 7 13 7 9 7 9 23 21 20
28 12 4 7 11 12 11 6 11 13 8 13 9 13 3 14 14 20 11 16 9 9 14 12 4 3 6 6 4 9 10 8 12 10 9 3 4 23 12 10 9 12 19 30 27
34 29 13 9 13 14 13 12 16 5 10 1 4 4 9 12 8 16 5 9 11 8 7 7 12 2 6 3 2 7 6 9 8 6 11 4 12 12 9 11 20 20 24 27 33
3 37 26 12 8 10 5 12 15 12 2 3 4 9 10 8 3 9 10 3 3 5 6 6 10 1 3 6 5 6 9 2 12 3 6 6 16 23 8 13 18 26 25 31 34
4 6 49 16 10 10 11 7 4 2 2 2 4 4 4 12 9 9 7 4 3 3 3 3 8 1 3 4 8 6 5 7 7 6 11 12 13 12 17 15 14 15 28 36 39
10 5 41 10 10 13 9 9 6 5 3 2 4 4 3 3 1 2 3 5 2 1 2 7 6 7 4 5 10 6 5 7 6 6 8 5 15 15 18 12 15 21 26 37 42
11 8 36 13 10 11 5 9 7 5 4 2 2 4 1 4 0 2 4 1 3 3 3 1 5 8 15 6 3 3 9 7 8 12 5 6 19 11 19 11 15 35 53 50 39
8 10 28 8 8 4 1 2 3 6 6 7 5 3 4 5 4 3 5 2 2 2 4 6 3 8 16 4 5 4 7 8 5 4 12 6 16 1 11 17 31 46 59 60 42
6 6 16 24 19 14 8 1 2 1 3 2 4 4 5 4 1 6 5 4 5 4 3 3 4 13 12 16 4 7 10 10 10 5 8 26 50 58 45 29 37 46 62 64 42
10 6 5 4 11 10 6 11 6 3 3 5 3 8 10 1 3 4 5 6 2 5 3 7 8 4 14 27 10 24 20 18 22 21 15 50 22 58 52 42 54 62 56 45 32
5 4 8 9 4 3 1 11 15 6 11 6 6 6 11 9 12 11 10 8 10 6 9 3 5 2 11 10 13 18 32 28 33 32 26 52 62 52 81 62 39 43 40 36 37
6 6 2 1 3 5 7 11 13 14 13 7 13 11 8 15 18 13 11 5 8 13 12 6 6 6 14 13 23 20 14 17 10 13 15 13 33 4 28 13 28 48 50 51 40
Wind_Direction_850mb
46 54 68 96 114 116 118 121 126 127 127 118 119 120 127 130 131 131 120 104 128 110 137 135 138 124 103 78 68 73 67 151 223 154 294 10 69 277 237 248 232 231 243 262 264
56 60 69 90 108 113 118 121 124 129 132 126 116 113 122 126 133 111 69 81 122 126 115 151 133 107 69 42 36 65 97 193 69 311 282 291 254 255 258 234 252 252 253 256 256
60 67 81 95 106 113 116 116 120 126 132 137 112 118 120 121 103 30 58 105 120 108 107 126 113 75 69 29 20 19 111 108 198 195 258 269 280 239 229 262 244 241 272 257 249
69 76 85 92 104 112 113 115 116 119 123 127 113 121 109 79 83 35 69 100 108 110 105 116 90 61 58 52 24 83 99 176 208 243 262 247 279 263 230 249 264 275 270 260 250
77 76 80 90 101 109 112 113 112 112 119 105 103 103 106 87 52 66 70 92 111 104 96 99 78 89 90 93 68 75 198 47 231 263 275 283 266 265 267 268 269 267 264 262 261
83 80 82 93 104 106 104 102 99 101 102 95 101 101 99 74 54 63 65 76 98 86 68 80 99 109 96 62 66 74 135 246 260 314 305 300 281 328 278 317 288 262 259 260 263
86 92 91 94 104 104 101 94 103 95 101 92 98 91 81 70 62 69 82 84 88 93 106 100 107 112 114 90 86 104 333 338 19 349 318 323 282 232 273 281 277 284 274 261 264
91 103 100 93 95 96 94 99 103 98 90 81 88 87 76 62 63 88 85 89 91 92 91 90 87 82 58 114 28 42 49 10 32 1 360 26 277 296 288 302 302 302 282 263 268
89 106 107 104 99 96 97 94 91 91 80 76 79 90 60 61 61 66 83 86 89 83 73 72 86 77 50 50 14 17 304 329 320 41 316 135 278 272 280 310 303 296 275 265 274
97 101 106 85 88 110 107 92 81 90 71 69 55 76 49 21 38 37 64 73 87 44 51 47 50 65 30 43 227 311 336 317 259 334 354 264 264 279 286 291 288 299 294 278 263
123 137 134 82 122 131 118 102 100 68 68 70 64 74 35 50 47 29 39 42 42 58 37 23 63 57 9 10 246 278 271 274 265 1 326 255 288 291 298 246 258 313 341 310 268
96 102 99 114 153 174 197 27 107 118 75 60 62 59 39 33 34 33 39 53 46 53 343 25 73 311 280 325 284 192 292 296 283 265 333 326 294 278 271 248 269 317 342 360 5
100 112 106 84 93 115 118 110 112 112 79 33 34 31 22 31 40 9 23 40 69 53 17 102 89 315 309 31 17 330 279 323 258 318 249 316 297 335 255 266 258 293 303 341 255
126 144 127 101 114 121 111 95 86 66 73 331 355 20 360 46 44 17 20 47 39 140 81 86 313 27 33 53 105 300 155 258 283 8 281 16 278 310 321 300 246 243 243 238 220
159 194 205 206 158 204 198 74 62 85 55 318 336 351 15 69 338 10 24 53 73 71 77 309 11 19 21 265 174 261 292 249 258 105 5 357 63 269 357 299 268 234 234 232 235
36 199 209 220 229 231 184 133 79 43 275 340 336 350 16 21 18 345 31 60 68 81 34 67 39 43 260 288 230 307 226 98 69 101 22 273 84 281 249 224 292 264 238 237 239
47 52 172 179 166 155 145 109 40 101 352 312 333 10 33 355 357 25 36 17 48 49 8 353 3 314 23 326 215 24 39 344 357 7 234 269 11 247 264 258 243 274 272 245 244
44 44 73 115 138 144 141 54 70 248 237 30 306 313 65 351 25 359 64 45 44 52 90 80 321 23 9 43 281 19 109 142 250 277 281 32 234 251 224 269 272 267 267 243 236
68 36 55 78 136 163 160 55 185 196 74 325 316 61 342 13 46 46 39 53 260 9 112 32 275 122 34 26 47 345 40 136 97 75 22 272 288 294 281 291 272 266 265 256 249
76 40 23 49 98 143 74 155 142 185 35 19 95 71 30 318 19 47 354 245 291 11 114 150 327 240 32 93 41 100 163 32 15 338 296 295 279 240 301 296 321 308 283 284 268
37 77 8 32 71 64 102 201 213 191 161 102 148 106 166 217 7 9 221 183 253 1 93 132 103 297 42 189 174 33 17 35 127 141 216 299 269 217 242 241 275 293 315 320 294
40 44 360 36 38 51 89 184 138 168 155 167 68 96 236 180 168 26 333 157 171 153 52 50 136 279 241 98 78 127 189 169 124 272 223 158 262 215 234 247 246 295 304 312 301
51 40 15 72 90 25 327 71 168 153 179 177 144 79 102 138 63 247 231 224 214 155 161 172 321 341 343 62 17 187 202 147 127 81 214 179 261 298 253 287 296 285 313 323 308
42 31 37 55 74 118 134 289 69 159 150 135 111 126 144 64 8 224 229 185 194 191 150 149 193 175 208 232 150 211 206 208 155 158 206 236 281 282 287 297 300 311 312 316 309
45 84 74 332 20 92 115 159 134 207 195 193 354 219 163 123 316 260 226 173 151 166 141 137 228 212 259 264 252 265 242 219 203 219 219 273 258 280 291 298 295 303 315 314 307
58 125 102 105 122 152 98 210 170 237 152 222 202 169 177 181 200 223 178 214 205 205 171 75 277 80 282 287 262 269 248 232 234 252 257 262 279 265 269 278 291 304 314 309 307
93 114 97 63 104 95 223 177 209 165 204 202 186 137 202 236 248 262 225 183 180 160 173 141 123 44 270 337 319 292 236 170 213 211 173 221 260 325 296 275 300 311 308 306 303